Content
SEND FEEDBACK

Daily
Averages
Monthly
Summary
Ireland

DUBLIN, IRELAND


Home > Europe > Ireland
Elevation: 279 feet     Latitude: 53 26N     Longitude: 006 15W

WEATHER
 
SELECT A DAY
Number of Records: 322,332;   Date Range: 7/1/96 - 7/28/14
 
SHARE

PRINT THIS DATA

[ ← Previous Day ]
WEATHER ALMANAC - APRIL 30, 2013
[ Next Day → ]
[ °C ]   °F
Weather ElementAverageHighLow
Temperature44.1 °F51.8 °F (12:30 pm)32 °F (5:30 am)
Dewpoint35.3 °F39.2 °F (8:00 am)32 °F (5:30 am)
Humidity72.6 %100 % (4:30 am)46 % (1:00 pm)
Barometer30.30 in30.36 in (11:00 am)30.24 in (12:30 am)
Wind Speed8.6 mph13.4 mph (7:00 pm)
Wind Gust25.3 mph (6:30 pm)
Weather ElementAverage
Visibility7.9 mi
Wind DirectionSSW (215.3 °)

Weather ElementTotal
Precipitation---
Heating Degree Days23.1 (Base 65)
Averaged from 51 records on April 30, 2013
WEATHER CONDITIONS BREAKOUT
WIND DIRECTION BREAKOUT
WEATHER BY HOUR - APRIL 30, 2013
[ °C ]   °F
Local TimeTemperatureDewpointHumidityBarometerVisibilityWind DirectionWind SpeedGust SpeedPrecipitationEventsConditions
12:30 AM37.4 °F33.8 °F87 %30.24 in6.2 miWest (280°)6.9 mphPartly Cloudy
1:00 AM37.0 °F35.0 °F87 %30.29 in25.0 miWest (270°)6.7 mphScattered Clouds
1:00 AM37.4 °F33.8 °F87 %30.27 in6.2 miWest (270°)6.9 mphPartly Cloudy
1:30 AM37.4 °F33.8 °F87 %30.27 in6.2 miWest (280°)9.2 mphPartly Cloudy
2:00 AM37.4 °F33.8 °F87 %30.27 in6.2 miWest (280°)9.2 mphPartly Cloudy
2:30 AM37.4 °F33.8 °F87 %30.27 in6.2 miWest (270°)11.5 mphPartly Cloudy
3:00 AM35.6 °F33.8 °F93 %30.27 in6.2 miWest (270°)11.5 mphPartly Cloudy
3:30 AM35.6 °F33.8 °F93 %30.27 in6.2 miWest (280°)10.4 mphPartly Cloudy
4:00 AM35.6 °F33.8 °F93 %30.27 in6.2 miWest (280°)9.2 mphPartly Cloudy
4:30 AM33.8 °F33.8 °F100 %30.27 in6.2 miWest (270°)10.4 mphPartly Cloudy
5:00 AM33.8 °F33.8 °F100 %30.30 in6.2 miWest (270°)9.2 mphPartly Cloudy
5:30 AM32.0 °F32.0 °F100 %30.30 in6.2 miWest (280°)8.1 mphPartly Cloudy
6:00 AM33.8 °F32.0 °F93 %30.30 in6.2 miWest (280°)10.4 mphPartly Cloudy
6:30 AM33.8 °F33.8 °F100 %30.30 in6.2 miWest (280°)8.1 mphPartly Cloudy
7:00 AM35.0 °F35.0 °F98 %30.34 in25.0 miWest (280°)8.9 mph
7:00 AM35.6 °F33.8 °F93 %30.30 inWest (280°)8.1 mphClear
7:30 AM37.4 °F37.4 °F100 %30.33 inWest (270°)9.2 mphClear
8:00 AM41.0 °F39.2 °F93 %30.33 inWNW (290°)8.1 mphClear
8:30 AM42.8 °F39.2 °F87 %30.33 in6.2 miNW (310°)6.9 mphPartly Cloudy
9:00 AM46.4 °F37.4 °F71 %30.33 in6.2 miNNW (330°)5.8 mphPartly Cloudy
9:30 AM46.4 °F37.4 °F71 %30.33 in6.2 miNNW (330°)9.2 mphPartly Cloudy
10:00 AM48.2 °F39.2 °F71 %30.33 in6.2 miNorth (350°)6.9 mphPartly Cloudy
10:30 AM48.2 °F35.6 °F62 %30.33 in6.2 miNNW (340°)8.1 mphScattered Clouds
11:00 AM48.2 °F37.4 °F66 %30.36 in6.2 miWNW (300°)8.1 mphScattered Clouds
11:30 AM50.0 °F35.6 °F58 %30.36 in6.2 miNW (310°)6.9 mphScattered Clouds
12:00 PM50.0 °F33.8 °F54 %30.36 in6.2 miNorth (350°)4.6 mphScattered Clouds
12:30 PM51.8 °F33.8 °F50 %30.33 in6.2 miNNW (330°)4.6 mphScattered Clouds
1:00 PM51.0 °F36.0 °F46 %30.36 in25.0 miEast (100°)6.7 mphPartly Cloudy
1:00 PM51.8 °F35.6 °F54 %30.33 in6.2 miEast (90°)6.9 mphScattered Clouds
1:30 PM50.0 °F32.0 °F50 %30.33 in6.2 miVariable3.5 mphScattered Clouds
2:00 PM50.0 °F35.6 °F58 %30.33 in6.2 miEast (100°)10.4 mphScattered Clouds
2:30 PM50.0 °F35.6 °F58 %30.33 in6.2 miEast (100°)5.8 mphScattered Clouds
3:00 PM50.0 °F35.6 °F58 %30.33 in6.2 miEast (100°)6.9 mphPartly Cloudy
3:30 PM50.0 °F37.4 °F62 %30.33 in6.2 miESE (110°)10.4 mphScattered Clouds
4:00 PM50.0 °F37.4 °F62 %30.33 in6.2 miSE (140°)10.4 mphScattered Clouds
4:30 PM50.0 °F33.8 °F54 %30.30 in6.2 miSE (130°)11.5 mphScattered Clouds
5:00 PM48.2 °F33.8 °F58 %30.30 in6.2 miSE (130°)12.7 mphScattered Clouds
5:30 PM48.2 °F33.8 °F58 %30.30 in6.2 miSE (130°)11.5 mphScattered Clouds
6:00 PM48.2 °F33.8 °F58 %30.30 in6.2 miSE (130°)11.5 mphScattered Clouds
6:30 PM48.2 °F33.8 °F58 %30.30 in6.2 miSE (140°)12.7 mph25.3 mphScattered Clouds
7:00 PM48.0 °F35.0 °F50 %30.31 in31.0 miSE (140°)13.4 mphMostly Cloudy
7:00 PM48.2 °F35.6 °F62 %30.30 in6.2 miSE (140°)11.5 mphScattered Clouds
7:30 PM48.2 °F35.6 °F62 %30.27 in6.2 miSE (140°)11.5 mphMostly Cloudy
8:00 PM48.2 °F35.6 °F62 %30.27 in6.2 miSE (140°)9.2 mphMostly Cloudy
8:30 PM48.2 °F35.6 °F62 %30.27 in6.2 miSE (140°)9.2 mphMostly Cloudy
9:00 PM46.4 °F35.6 °F66 %30.27 in6.2 miSSE (150°)6.9 mphMostly Cloudy
9:30 PM46.4 °F37.4 °F71 %30.27 in6.2 miSSE (150°)6.9 mphMostly Cloudy
10:00 PM48.2 °F37.4 °F66 %30.27 in6.2 miVariable3.5 mphMostly Cloudy
10:30 PM48.2 °F37.4 °F66 %30.30 in6.2 miSSW (200°)8.1 mphMostly Cloudy
11:00 PM48.2 °F37.4 °F66 %30.27 in6.2 miSW (220°)8.1 mphMostly Cloudy
11:30 PM48.2 °F37.4 °F66 %30.30 in6.2 miSW (230°)8.1 mphMostly Cloudy
Hourly data recorded from EIDW, located miles away from Dublin, Ireland







STORIES FROM OUR PARTNERS